Flag for Germany Weather past 2 weeks in Ellwangen (Jagst), Baden-Württemberg, Germany

Now
34 °F

Light snow. Overcast.


Feels Like: 25 °F
Forecast: 28 / 46 °F
Wind: 14 mph from Southwest

Location: Stoetten

Current Time: Apr 2, 2015 at 10:06:59 AM

Latest Report: Apr 2, 2015 at 9:00 AM


Visibility: 3 mi

Pressure: 29.94 "Hg

Humidity: 87%

Dew point: 31 °F

Location of Ellwangen (Jagst)Location

Historic Weather in Ellwangen (Jagst) — Graph

°F

Ellwangen (Jagst) temperature yesterday

Maximum temperature yesterday: 37 °F (at 2:00 AM)
Minimum temperature yesterday: 29 °F (at 4:00 AM)
Average temperature yesterday: 33 °F

Past Weeks' High & Low Weather Summary

 TemperatureHumidityPressure
High59 °F (Mar 25, 2:00 PM)100% (Mar 26, 3:00 AM)30.29 "Hg (Mar 26, 3:00 AM)
Low29 °F (Apr 1, 4:00 AM)31% (Mar 25, 3:00 PM)29.50 "Hg (Mar 31, 9:00 AM)
Average41 °F75%29.98 "Hg
* Reported Mar 18 8:00 AM — Apr 2 9:00 AM, Ellwangen (Jagst), Weather by CustomWeather, © 2015

Note: Actual official high and low records may vary slightly from our data, if they occured in-between our weather recording intervals... More about our weather records

Advertising

Ellwangen (Jagst) weather history for previous 24 hours

 ConditionsComfort  
Time TempWeatherWind HumidityBarometerVisibility
9:00 AM
Thu, Apr 2
34 °FLight snow. Overcast.14 mph87%29.94 "Hg3 mi
8:00 AM33 °FLight snow. Overcast.14 mph93%29.98 "Hg2 mi
7:00 AM33 °FLight snow. Overcast.13 mph92%30.01 "Hg2 mi
6:00 AM32 °FLight snow. Overcast.15 mph91%30.04 "Hg2 mi
5:00 AM34 °FLight snow. Passing clouds.16 mph76%30.06 "Hg12 mi
4:00 AM35 °FDrizzle. Overcast.16 mph74%30.09 "Hg19 mi
3:00 AM34 °FLight snow. Overcast.15 mph79%30.14 "Hg14 mi
2:00 AM35 °FOvercast.15 mph76%30.16 "Hg22 mi
1:00 AM34 °FLight snow. Overcast.14 mph79%30.19 "Hg2 mi
12:00 AM35 °FOvercast.12 mph74%30.20 "Hg25 mi
11:00 PM
Wed, Apr 1
34 °FPassing clouds.14 mph74%30.21 "Hg25 mi
10:00 PM33 °FPassing clouds.12 mph82%30.21 "Hg22 mi
9:00 PM33 °FPassing clouds.10 mph84%30.21 "Hg28 mi
8:00 PM34 °FSnow flurries. Overcast.15 mph73%30.17 "Hg43 mi
7:00 PM35 °FPartly sunny.18 mph70%30.15 "Hg37 mi
6:00 PM33 °FFog.12 mph92%30.16 "Hg37 mi
5:00 PM35 °FOvercast.13 mph81%30.14 "Hg6 mi
4:00 PM36 °FPartly sunny.14 mph74%30.12 "Hg37 mi
3:00 PM33 °FSnow flurries. Overcast.15 mph78%30.16 "Hg2 mi
2:00 PM34 °FScattered clouds.14 mph78%30.15 "Hg47 mi
1:00 PM36 °FOvercast.13 mph62%30.13 "Hg47 mi
12:00 PM34 °FOvercast.14 mph68%30.14 "Hg47 mi
11:00 AM34 °FOvercast.13 mph68%30.13 "Hg8 mi
10:00 AM32 °FPartly sunny.14 mph75%30.10 "Hg47 mi
Weather by CustomWeather, © 2015

See weather overviewHow to use our weather pages